CZ-4C DEB, 40114

Orbit data source: Space-Track

CZ-4C DEB, 40114 is space debris in LEO originally from a launch on Sat, 09 Aug 2014 UTC launched from the Jiuquan Satellite Launch Center, China (JSC). Debris objects in space refer to the collection of defunct objects orbiting the Earth. Examples of debris include non-operational satellites, rocket bodies, and fragments generated from explosions, collisions, or faulty payload assembly.

Loading next visibility...
Identifier
40114, 2014-047F
Orbit
LEO
Country
Flag of CNCN / PRC
Related business
Manufacturer
CAST
Mission
Spacecraft
Bus & Motor
Unknown
Mass
Unknown
Launch date (UTC)
2014-08-09 (11 years ago)
Launch vehicle
Unknown
Launch site
Jiuquan Satellite Launch Center, China (JSC)
Object type
Payload
Rocket body
Debris
Shape & HBR
Unknown
Radar Cross Section
6.100 m², Large (>1 m²)

Expand to show TLE details & history
Last TLE update: 14 hours ago

TLE from 14 hours ago
0 CZ-4C DEB
1 40114U 14047F   25242.98279329  .00000026  00000-0  13435-3 0  9997
2 40114  63.3819  73.7884 0364997  13.7158 347.3469 13.44346860542895
Epoch: 2025-08-30T23:35Z
TLE epoch observation values (Epoch: 2025-08-30T23:35:13.34Z)
Latitude
0.00002°
Longitude
100.57356°
Altitude
829.298 km
Speed
7.57 km/s
True Right ascension
04h 55m 09s
True Declination
0° 00' 00"
Sunlit
Object was in daylight at epoch
Visualization orbit readout
Latitude
Unknown
Longitude
Unknown
Altitude
Unknown
Speed
Unknown
Apparent Right ascension
Unknown
Apparent Declination
Unknown
Sunlit
N/A
Visualization observer readout
Local Sidereal Time
05:12:32
Azimuth
Unknown
Elevation
Unknown
Doppler factor
Unknown
Orbital elements
Apogee altitude
1,364.617 km
Perigee altitude
819.304 km
Semi-major axis
7,470.097 km
Eccentricity
0.0365
Inclination
63.3819°
RAAN
73.7884°
Arg. of periapsis
13.7158°
True anomaly
346.38816°
Mean anomaly
347.3469°
Eccentric anomaly
346.87191°
Mean motion
3.36166 °/min
Orbital period
107.09 mins
BSTAR
0.00013435
Loading maneuver chart data...
Computing Atmospheric mass density...
Loading historical data...
Loading historical data...
Loading historical data...
Loading historical data...
Loading historical data...
Loading historical data...
Loading historical data...

Documentation

Showing up to 5 results
|